Regional Weather Roundup
Issued by NWS Northern Indiana

Home | Current Version | Previous Version | Graphics & Text | Print | Product List | Glossary On
Versions: 1 2 3 4 5 6 7 8 9 10 11 12 13 14 15 16 17 18 19 20 21 22 23 24 25 26 27 28 29 30 31 32 33 34 35 36 37 38 39 40 41 42 43 44 45 46 47 48 49 50
000
ASUS43 KIWX 250800
RWRIWX

KIWX WEATHER ROUNDUP
NATIONAL WEATHER SERVICE NORTHERN INDIANA
400 AM EDT SUN JUN 25 2017

NOTE: "FAIR" INDICATES FEW OR NO CLOUDS BELOW 12,000 FEET WITH NO
SIGNIFICANT WEATHER AND/OR OBSTRUCTIONS TO VISIBILITY.

* THESE STATIONS ARE NOT UNDER NWS QUALITY CONTROL. THEY ALSO MAY NOT
  REPORT WEATHER SUCH AS PRECIPITATION OR FOG.

INZ001>027-250900-
NORTHERN INDIANA

CITY           SKY/WX    TMP DP  RH WIND       PRES   REMARKS
GARY*          MOCLDY    63  44  49 W13G20    30.06R
MICHIGAN CITY* CLOUDY    55  46  71 SW3       30.04S
KNOX*          MOCLDY    55  37  50 W5        30.04S
SOUTH BEND     CLOUDY    56  48  74 SW8       30.03F
GOSHEN         MOCLDY    56  46  69 SW10      30.03F
MONTICELLO*    PTCLDY    56  48  74 SW7       30.06F
FORT WAYNE     PTCLDY    55  49  80 SW9       30.05F

$$
INZ028>050-250900-
CENTRAL INDIANA

CITY           SKY/WX    TMP DP  RH WIND       PRES   REMARKS
LAFAYETTE      PTCLDY    54  51  90 W3        30.07F
KOKOMO*        PTCLDY    56  48  74 SW7       30.08F
MUNCIE*        CLEAR     59  48  67 SW6       30.08F
INDIANAPOLIS   PTCLDY    56  50  80 SW7       30.10F

$$
MIZ043>046-050>051-056>058-064>065-071>073-077>080-250900-
SOUTHWEST LOWER MICHIGAN

CITY           SKY/WX    TMP DP  RH WIND       PRES   REMARKS
BATTLE CREEK   CLOUDY    57  53  86 SW8       30.01S
BENTON HARBOR  CLOUDY    63  52  67 W13G23    30.01F
COLDWATER*     MOCLDY    57  49  76 SW6       30.01F
HILLSDALE*     MOCLDY    55  48  76 SW6       30.01F
HOLLAND        PTCLDY    59  46  62 W10G20    30.00F
GRAND RAPIDS   MOCLDY    58  49  72 W10       29.98F
KALAMAZOO      CLOUDY    58  51  78 SW5       30.01F
STURGIS*       CLOUDY    55  49  81 SW3       30.01F
THREE RIVERS*  CLOUDY    57  50  76 SW5       30.02S

$$
OHZ001>008-015>018-024>025-250900-
NORTHWEST OHIO

CITY           SKY/WX    TMP DP  RH WIND       PRES   REMARKS
DEFIANCE       CLEAR     56  49  77 SW3       30.03F
FINDLAY        CLEAR     57  51  80 W7        30.03F
TOLEDO EXPRESS CLEAR     57  51  80 SW7       30.01F
TOLEDO METCALF CLEAR     58  52  80 SW5       30.02F
LIMA           CLEAR     56  50  80 W7        30.05F

$$
AND FOR LAKE MICHIGAN COASTAL AND OPEN LAKE BUOY OBSERVATIONS

STATION/POSITION TEMP    WIND        PRES    VSBY  WAVE
                 AIR SEA DIR/SP/G                  HT/PER
                 (F)     (DEG/KT/KT) (MB)    (MI)  (FT/S)
CALUMET HARBOR    63     270/  5/  9 1017.0
MICHIGAN CITY     65     240/ 18/ 21   N/A
BURNS HARBOR      64     250/ 10/ 12 1017.6F
SOUTH LAKE BUOY   59 61  300/ 19/ 21 1016.1          3/ 5
4 MI NW BRIDGMAN  65 68  290/ 19/ 25 1016.6F         3/ 4
MICHIGAN CITY     65 67  280/ 17/ 23   N/A           2/ 4

$$
&&




USA.gov is the U.S. government's official web portal to all federal, state and local government web resources and services.